OSIRIS-3U (43027 NORAD) Tracking and Keplerian Element Data

This shows tracking and keplerian element data for the satellite.

Feedback or suggestion? Click here.




ElementValue
Catalog43027
NameOSIRIS-3U
Epoch Orbit5586
Epoch Day317.50236813
Epoch Year2018
RAAN329.451
Inclination51.6367
Eccentricity0.0005258
Argument of Perigee30.4679
Mean Anonmoly329.6625
Mean Motion15.7597144
Decay Rate0.00064666
L11 43027U 98067NL 18317.50236813 .00064666 00000-0 40854-3 0 9996
L22 43027 51.6367 329.4510 0005258 30.4679 329.6625 15.75971440 55869

Live tracking and technical data element details for OSIRIS-3U (NORAD 43027). OSIRIS-3U can be tracked NOW for your location showing map with azimuth and elevation plus other details from your city location.

Track the satellite on the map from your city or location and see movement details for azimuth, elevation, latitude, longitude, range, height, and movement on the map or in text.







IsCatalogInMostPopularTable: catalog: 43027, numindb: 137
Update: records affected: 1



GetName: 43027 OSIRIS-3U

Hit Count: updated at: Wed, 14 Nov 2018 16:21:39 GMT